OBJECT C, 59775

Orbit data source: Space-Track

You're viewing an Uncataloged Satellite

Recently launched and/or uncataloged satellites may have evolving metadata. Metadata may include but not limited to: Owner, Maufacturer, Bus, Motor, and Mission.

OBJECT C, 59775 is a satellite owned by Sputniks (CIS) in SSO that was launched on Thu, 16 May 2024 UTC via a SOYUZ-2-1B launch vehicle from the Plesetsk Missile And Space Complex (PKMTR). Unknown objects in Earth's orbit typically refer to objects detected orbiting the Earth but have not yet been identified or cataloged. These objects could be anything from previously untracked satellites, spent rocket stages, debris from satellite collisions, or even natural meteoroids temporarily captured by Earth's gravity.

Loading next visibility...
Identifier
59775, 2024-092C
Orbit
SSO
Last TLE update
4 hours ago
Origin
Manufacturer
Sputniks
Mission
Operational spacecraft
Bus & Motor
CUBESAT 12U, Unknown motor
Mass
20 kg wet, 20 kg dry
Launch date (UTC)
2024-05-16 (1 year ago)
Launch vehicle
SOYUZ-2-1B
Launch site
Plesetsk Missile And Space Complex (PKMTR)
Object type
Unknown
Shape & HBR
Unknown
Radar Cross Section
Medium (>0.1 m² and <1 m²)

Expand to show TLE details & history

TLE from 4 hours ago
0 OBJECT C
1 59775U 24092C   25182.23864625  .00005870  00000-0  27030-3 0  9999
2 59775  97.6294 300.8587 0009834 339.2488  20.8346 15.20660900 62093
Epoch: 2025-07-01T05:43Z
TLE epoch observation values (Epoch: 2025-07-01T05:43:39.036Z)
Latitude
-0.00002°
Longitude
-64.59091°
Altitude
500.605 km
Speed
7.618 km/s
True Right ascension
20h 03m 26s
True Declination
0° 00' 00"
Sunlit
Object was in full shadow at epoch
Visualization orbit readout
Latitude
-62.55971°
Longitude
-49.53706°
Altitude
522.826 km
Speed
7.603 km/s
Apparent Right ascension
11h 08m 27s
Apparent Declination
-79° 30' 04"
Sunlit
Object is in full shadow
Visualization observer readout
Local Sidereal Time
21:49:38
Azimuth
185.449° SSW
Elevation
-49.685°
Doppler factor
1
Orbital elements
Apogee altitude
507.585 km
Perigee altitude
494.056 km
Semi-major axis
6,878.958 km
Eccentricity
0.00098
Inclination
97.6294°
RAAN
300.8587°
Arg. of periapsis
339.2488°
True anomaly
Unknown
Mean anomaly
20.8346°
Eccentric anomaly
Unknown
Mean motion
3.80416 °/min
Orbital period
94.63 mins
BSTAR
0.0002703
Loading maneuver chart data...
Loading SW <> Apogee altitude chart data...
Loading historical data...
Loading historical data...
Loading historical data...
Loading historical data...
Loading historical data...
Loading historical data...
Loading historical data...

OBJECT C Visibility forecast

Observer location: undefined°, undefined°

Span
Click to sort rows by Start time (UTC) header in descending order
Start Az.
Max El. time (UTC)
Max El. Az.
Max El.
End time (UTC)
End Az.
6 mins2025-07-01 20:30:14.482Z25.283° NE2025-07-01 20:33:14.482Z92.365° ESE37.481°2025-07-01 20:36:14.482Z173.192° S
4 mins2025-07-02 08:43:14.482Z230.512° WSW2025-07-02 08:44:14.482Z252.422° W20.708°2025-07-02 08:47:14.482Z313.823° NW
|